User: anonymous   Login
Location: Ballingbuur
(53.0000°N, 5.7667°E)
Time: 07:50:05
(UTC+00:00)
Language:

Envisat - Orbit

View from above orbital plane
View from above orbital plane
View from above satellite
View from above satellite

Ground track
Ground track

The orbit data is extracted from the following two-line orbital elements,

1 27386U 02009A   21057.95325387  .00000030  00000-0  23293-4 0  9990
2 27386  98.1447  57.6778 0001253  93.2296 326.6292 14.38014190995120
Epoch (UTC): 26 February 2021 22:52:41
Eccentricity: 0.0001253
inclination: 98.1447°
perigee height: 764 km
apogee height: 766 km
right ascension of ascending node: 57.6778°
argument of perigee: 93.2296°
revolutions per day: 14.38014190
mean anomaly at epoch: 326.6292°
orbit number at epoch: 99512

The dashed part of the orbit path shows where the satellite is in the earth's shadow,  

DLR